Weather History for PANN - March, 2014

Change the Weather History Date:

Thursday, March 20, 2014

  Actual Average Record
Temperature  
Mean Temperature 27 °F -  
Max Temperature 44 °F 22 °F 57 °F (1968)
Min Temperature 10 °F -4 °F -25 °F (2007)
Degree Days  
Heating Degree Days 38    
Moisture  
Dew Point 3 °F    
Average Humidity 64    
Maximum Humidity 100    
Minimum Humidity 43    
Precipitation  
Precipitation 0.24 in - - ()
Sea Level Pressure  
Sea Level Pressure 30.49 in    
Wind  
Wind Speed 4 mph (NE)    
Max Wind Speed 17 mph    
Max Gust Speed -    
Visibility 10 miles    
Events      
Averages and records for this station are not official NWS values.
T = Trace of Precipitation, MM = Missing Value Source: NWS Daily Summary

Daily Weather History Graph

Daily Weather History Graph

Search for Another Location

Airport or City:

Trip Planner

Search our weather history database for the weather conditions in past years. The results will help you decide how hot, cold, wet, or windy it might be!

Date:

Astronomy

Mar. 20, 2014 Rise Set
Actual Time 7:56 AM AKDT 8:12 PM AKDT
Civil Twilight 7:07 AM AKDT 9:01 PM AKDT
Nautical Twilight 6:08 AM AKDT 10:01 PM AKDT
Astronomical Twilight 5:00 AM AKDT 11:10 PM AKDT
Moon 1:02 AM AKDT (3/20) 8:41 AM AKDT (3/20)
Length of Visible Light 13h 53m
Length of Day
12h 16m
Waning Gibbous, 83% of the Moon is Illuminated
Mar 20
Waning Gibbous
Mar 23
Last Quarter
Mar 30
New
Apr 7
First Quarter
Apr 14
Full

Hourly Weather History & Observations

Time (AKDT) Temp. Windchill Dew Point Humidity Pressure Visibility Wind Dir Wind Speed Gust Speed Precip Events Conditions
12:53 AM -2.0 °F - -7.1 °F 79% 30.54 in 10.0 mi Calm Calm - N/A   Clear
1:53 AM -5.1 °F - -9.9 °F 80% 30.55 in 10.0 mi Calm Calm - N/A   Clear
2:53 AM -6.0 °F - -9.9 °F 83% 30.55 in 10.0 mi Calm Calm - N/A   Scattered Clouds
3:53 AM -7.1 °F - -14.1 °F 72% 30.55 in 10.0 mi Calm Calm - N/A   Clear
4:53 AM -9.0 °F - -15.0 °F 75% 30.54 in 10.0 mi Calm Calm - N/A   Clear
5:53 AM -9.0 °F - -16.1 °F 71% 30.53 in 10.0 mi Calm Calm - N/A   Clear
6:53 AM -9.9 °F - -16.1 °F 74% 30.53 in 10.0 mi Calm Calm - N/A   Clear
7:53 AM -11.9 °F -21.5 °F -18.0 °F 74% 30.54 in 10.0 mi NNW 3.5 mph - N/A   Clear
8:53 AM -5.1 °F -19.1 °F -9.9 °F 80% 30.54 in 10.0 mi ENE 6.9 mph - N/A   Clear
9:53 AM 10.9 °F -0.8 °F 3.9 °F 73% 30.54 in 10.0 mi ENE 8.1 mph - N/A   Clear
10:53 AM 14.0 °F 6.5 °F 6.1 °F 71% 30.53 in 10.0 mi Variable 4.6 mph - N/A   Clear
11:53 AM 19.0 °F 7.5 °F 6.1 °F 57% 30.53 in 10.0 mi ENE 10.4 mph - N/A   Clear
12:53 PM 21.0 °F 6.6 °F 7.0 °F 55% 30.53 in 10.0 mi ENE 17.3 mph - N/A   Clear
1:53 PM 23.0 °F 11.7 °F 7.0 °F 50% 30.52 in 10.0 mi ENE 11.5 mph - N/A   Clear
2:53 PM 25.0 °F 13.1 °F 7.0 °F 46% 30.52 in 10.0 mi East 13.8 mph - N/A   Clear
3:53 PM 26.1 °F 14.5 °F 6.1 °F 43% 30.51 in 10.0 mi ENE 13.8 mph - N/A   Clear
4:53 PM 26.1 °F 16.2 °F 6.1 °F 43% 30.50 in 10.0 mi East 10.4 mph - N/A   Clear
5:53 PM 27.0 °F 18.7 °F 7.0 °F 43% 30.49 in 10.0 mi East 8.1 mph - N/A   Clear
6:53 PM 25.0 °F 19.3 °F 6.1 °F 45% 30.49 in 10.0 mi North 4.6 mph - N/A   Clear
7:53 PM 21.9 °F 15.7 °F 6.1 °F 51% 30.49 in 10.0 mi North 4.6 mph - N/A   Clear
8:53 PM 19.0 °F - 5.0 °F 54% 30.49 in 10.0 mi Calm Calm - N/A   Clear
9:53 PM 19.9 °F 10.1 °F 5.0 °F 52% 30.49 in 10.0 mi NE 8.1 mph - N/A   Clear
10:53 PM 19.9 °F 8.6 °F 3.9 °F 50% 30.50 in 10.0 mi ENE 10.4 mph - N/A   Clear
11:53 PM 19.0 °F 8.2 °F 3.0 °F 50% 30.50 in 10.0 mi ENE 9.2 mph - N/A   Clear